GW1987 Weather Reports


Display with metric or nautical units.
time (UTC)temp
F
wind
direction
speed
MPH
gust
MPH
rain 1hr
in
rain 24hr
in
rain mn
in
humidity
%
barometer
mb
20260507070030 56 360 12.0 16.0 0.00 0.00 0.00 39 920.0
20260507065513 54 360 11.0 14.0 0.00 0.00 0.00 40 919.9
20260507065012 54 360 11.0 21.0 0.00 0.00 0.00 40 919.9
20260507064532 55 360 15.0 22.0 0.00 0.00 0.00 40 919.8
20260507064014 54 360 19.0 22.0 0.00 0.00 0.00 41 919.5
20260507063512 54 360 12.0 17.0 0.00 0.00 0.00 41 919.7
20260507063030 54 360 13.0 18.0 0.00 0.00 0.00 41 919.3
20260507062517 54 360 15.0 18.0 0.00 0.00 0.00 41 919.1
20260507062014 53 360 14.0 17.0 0.00 0.00 0.00 41 918.8
20260507061534 53 360 13.0 16.0 0.00 0.00 0.00 42 918.9
20260507061012 52 360 12.0 15.0 0.00 0.00 0.00 42 918.9
20260507060512 52 360 11.0 13.0 0.00 0.00 0.00 42 918.6
20260507060032 52 360 7.0 11.0 0.00 0.00 0.00 40 918.6
20260507055511 54 360 6.0 13.0 0.00 0.00 0.00 38 918.7
20260507055012 54 360 10.0 14.0 0.00 0.00 0.00 38 918.6
20260507054530 55 360 11.0 16.0 0.00 0.00 0.00 37 918.5
20260507054011 55 360 12.0 16.0 0.00 0.00 0.00 38 918.5
20260507053511 55 360 12.0 16.0 0.00 0.00 0.00 37 918.5
20260507053031 55 360 11.0 15.0 0.00 0.00 0.00 37 918.5
20260507052512 55 360 10.0 15.0 0.00 0.00 0.00 36 918.5
20260507052013 56 360 11.0 15.0 0.00 0.00 0.00 36 918.6
20260507051535 56 360 11.0 14.0 0.00 0.00 0.00 36 918.7
20260507051011 57 360 10.0 17.0 0.00 0.00 0.00 35 918.7
20260507050511 58 360 13.0 18.0 0.00 0.00 0.00 34 918.6
20260507050034 58 360 14.0 19.0 0.00 0.00 0.00 34 918.6
20260507045512 58 360 14.0 19.0 0.00 0.00 0.00 34 918.5
20260507045013 58 360 13.0 18.0 0.00 0.00 0.00 34 918.5
20260507044545 58 360 14.0 18.0 0.00 0.00 0.00 34 918.6
20260507044019 58 360 13.0 17.0 0.00 0.00 0.00 34 918.5
20260507043511 58 360 13.0 17.0 0.00 0.00 0.00 34 918.6
20260507043040 58 360 13.0 17.0 0.00 0.00 0.00 33 918.7
20260507042520 59 360 14.0 17.0 0.00 0.00 0.00 33 918.7
20260507042012 59 360 14.0 17.0 0.00 0.00 0.00 32 918.7
20260507041536 59 360 13.0 16.0 0.00 0.00 0.00 32 918.8
20260507041012 59 360 12.0 16.0 0.00 0.00 0.00 31 918.8
20260507040513 60 360 13.0 16.0 0.00 0.00 0.00 31 918.7
20260507040043 60 360 12.0 17.0 0.00 0.00 0.00 31 918.6
20260507035511 60 360 13.0 17.0 0.00 0.00 0.00 30 918.6
20260507035012 60 360 13.0 17.0 0.00 0.00 0.00 30 918.5
20260507034533 60 360 11.0 15.0 0.00 0.00 0.00 30 918.6
20260507034012 60 360 10.0 15.0 0.00 0.00 0.00 30 918.6
20260507033512 61 360 10.0 13.0 0.00 0.00 0.00 30 918.6
20260507033033 60 360 10.0 13.0 0.00 0.00 0.00 30 918.7
20260507032513 60 360 10.0 13.0 0.00 0.00 0.00 30 918.7
20260507032012 60 360 8.0 11.0 0.00 0.00 0.00 29 918.6
20260507031537 61 360 7.0 12.0 0.00 0.00 0.00 29 918.8
20260507031011 61 360 9.0 13.0 0.00 0.00 0.00 29 918.8
20260507030513 61 360 9.0 11.0 0.00 0.00 0.00 28 918.9
20260507030040 62 360 8.0 11.0 0.00 0.00 0.00 28 918.9
20260507025513 62 360 8.0 13.0 0.00 0.00 0.00 27 919.0
20260507025014 63 360 9.0 13.0 0.00 0.00 0.00 27 918.8
20260507024535 63 360 9.0 13.0 0.00 0.00 0.00 26 918.7
20260507024013 64 360 9.0 16.0 0.00 0.00 0.00 25 918.7
20260507023513 65 360 12.0 18.0 0.00 0.00 0.00 25 918.7
20260507023034 65 360 14.0 22.0 0.00 0.00 0.00 24 918.9
20260507022513 65 360 17.0 22.0 0.00 0.00 0.00 24 918.6
20260507022015 66 360 16.0 22.0 0.00 0.00 0.00 23 918.5
20260507021531 66 360 16.0 22.0 0.00 0.00 0.00 22 918.5
20260507021013 66 360 16.0 23.0 0.00 0.00 0.00 22 918.6
20260507020513 67 360 16.0 23.0 0.00 0.00 0.00 21 918.6
20260507020037 67 360 15.0 22.0 0.00 0.00 0.00 21 918.7
20260507015512 67 360 16.0 23.0 0.00 0.00 0.00 20 918.7
20260507015014 68 360 18.0 26.0 0.00 0.00 0.00 19 918.7
20260507014550 69 360 21.0 26.0 0.00 0.00 0.00 18 918.6
20260507014013 70 360 21.0 26.0 0.00 0.00 0.00 17 918.7
20260507013512 70 360 20.0 26.0 0.00 0.00 0.00 17 918.7
20260507013035 70 360 21.0 27.0 0.00 0.00 0.00 17 918.8
20260507012519 70 360 21.0 27.0 0.00 0.00 0.00 16 918.7
20260507012011 70 360 18.0 28.0 0.00 0.00 0.00 16 918.8
20260507011535 71 360 23.0 28.0 0.00 0.00 0.00 15 918.7
20260507011017 71 360 24.0 28.0 0.00 0.00 0.00 15 918.6
20260507010511 71 360 21.0 27.0 0.00 0.00 0.00 14 918.7
20260507010036 71 360 20.0 27.0 0.00 0.00 0.00 14 918.7
20260507005517 71 360 16.0 21.0 0.00 0.00 0.00 11 918.9
20260507005012 71 360 17.0 20.0 0.00 0.00 0.00 10 918.9
20260507004532 71 360 14.0 19.0 0.00 0.00 0.00 10 918.7
20260507004014 71 360 16.0 20.0 0.00 0.00 0.00 10 918.8
20260507003513 71 360 17.0 20.0 0.00 0.00 0.00 10 918.7
20260507003039 71 360 15.0 19.0 0.00 0.00 0.00 10 918.8
20260507002512 71 360 15.0 23.0 0.00 0.00 0.00 10 918.9
20260507002013 71 360 16.0 22.0 0.00 0.00 0.00 10 918.8
20260507001536 72 360 14.0 24.0 0.00 0.00 0.00 10 918.7
20260507001015 72 360 19.0 24.0 0.00 0.00 0.00 10 918.8
20260507000514 72 360 15.0 21.0 0.00 0.00 0.00 10 918.9
20260507000035 72 360 13.0 22.0 0.00 0.00 0.00 10 919.0
20260506235513 72 360 16.0 23.0 0.00 0.00 0.00 10 918.9
20260506235012 73 360 12.0 23.0 0.00 0.00 0.00 9 918.8
20260506234540 74 360 15.0 25.0 0.00 0.00 0.00 8 918.7
20260506234014 74 360 18.0 27.0 0.00 0.00 0.00 9 918.6
20260506233512 73 360 19.0 27.0 0.00 0.00 0.00 9 918.7
20260506233038 73 360 22.0 27.0 0.00 0.00 0.00 9 918.5
20260506232514 73 360 14.0 27.0 0.00 0.00 0.00 9 918.8
20260506232013 73 360 21.0 27.0 0.00 0.00 0.00 10 919.0
20260506231539 72 360 19.0 28.0 0.00 0.00 0.00 8 918.9
20260506231014 74 360 21.0 30.0 0.00 0.00 0.00 9 918.7
20260506230512 73 360 19.0 28.0 0.00 0.00 0.00 9 918.8
20260506230037 72 360 18.0 28.0 0.00 0.00 0.00 10 919.1
20260506225513 72 360 20.0 28.0 0.00 0.00 0.00 9 919.1
20260506225013 74 360 23.0 27.0 0.00 0.00 0.00 8 919.1
20260506224537 74 360 16.0 28.0 0.00 0.00 0.00 8 919.0
20260506224012 73 360 23.0 28.0 0.00 0.00 0.00 8 919.2
20260506223513 73 360 14.0 28.0 0.00 0.00 0.00 9 919.2
20260506223038 72 360 23.0 28.0 0.00 0.00 0.00 8 919.2
20260506222513 74 360 16.0 34.0 0.00 0.00 0.00 8 919.5
20260506222015 74 360 17.0 31.0 0.00 0.00 0.00 9 919.6
20260506221539 74 360 19.0 35.0 0.00 0.00 0.00 8 919.3
20260506221012 75 360 20.0 35.0 0.00 0.00 0.00 8 919.4
20260506220512 74 360 24.0 30.0 0.00 0.00 0.00 8 919.5
20260506220039 74 360 17.0 31.0 0.00 0.00 0.00 9 919.7
20260506215513 74 360 24.0 34.0 0.00 0.00 0.00 9 919.8
20260506215011 73 360 27.0 34.0 0.00 0.00 0.00 8 919.6
20260506214537 74 360 22.0 34.0 0.00 0.00 0.00 8 919.8
20260506214013 73 360 19.0 34.0 0.00 0.00 0.00 9 919.9
20260506213514 73 360 20.0 36.0 0.00 0.00 0.00 8 920.0
20260506213036 73 360 24.0 36.0 0.00 0.00 0.00 8 919.8
20260506212511 73 360 22.0 29.0 0.00 0.00 0.00 8 919.8
20260506212013 73 360 22.0 26.0 0.00 0.00 0.00 9 919.9
20260506211540 72 360 16.0 31.0 0.00 0.00 0.00 8 919.9
20260506211015 72 360 19.0 33.0 0.00 0.00 0.00 8 920.3
20260506210516 72 360 26.0 33.0 0.00 0.00 0.00 8 920.0
20260506210038 72 360 16.0 30.0 0.00 0.00 0.00 9 920.2
20260506205513 73 360 23.0 35.0 0.00 0.00 0.00 8 920.2
20260506205013 72 360 20.0 35.0 0.00 0.00 0.00 9 920.2
20260506204538 71 360 13.0 34.0 0.00 0.00 0.00 9 920.4
20260506204013 72 360 13.0 21.0 0.00 0.00 0.00 9 920.4
20260506203513 71 360 11.0 24.0 0.00 0.00 0.00 9 920.4
20260506203042 71 360 19.0 31.0 0.00 0.00 0.00 9 920.0
20260506202514 71 360 13.0 34.0 0.00 0.00 0.00 9 920.4
20260506202015 71 360 15.0 28.0 0.00 0.00 0.00 10 920.4
20260506201555 70 360 9.0 23.0 0.00 0.00 0.00 10 920.5
20260506201014 70 360 14.0 23.0 0.00 0.00 0.00 10 920.7
20260506200511 69 360 8.0 18.0 0.00 0.00 0.00 11 920.8
20260506200042 70 360 9.0 13.0 0.00 0.00 0.00 11 920.9
20260506195512 68 360 2.0 15.0 0.00 0.00 0.00 13 921.0
20260506195018 68 360 10.0 22.0 0.00 0.00 0.00 13 921.2
20260506194548 68 360 13.0 21.0 0.00 0.00 0.00 13 921.0
20260506194017 68 360 14.0 19.0 0.00 0.00 0.00 13 921.1
20260506193515 67 360 12.0 19.0 0.00 0.00 0.00 13 921.4
20260506193044 67 360 9.0 25.0 0.00 0.00 0.00 13 921.4
20260506192517 67 360 10.0 17.0 0.00 0.00 0.00 14 921.5
20260506192015 66 360 9.0 17.0 0.00 0.00 0.00 14 921.5
20260506191546 66 360 12.0 21.0 0.00 0.00 0.00 14 921.6
20260506191016 66 360 12.0 21.0 0.00 0.00 0.00 13 921.7
20260506190516 66 360 8.0 17.0 0.00 0.00 0.00 15 921.9
20260506190045 66 360 13.0 17.0 0.00 0.00 0.00 15 922.1
20260506185517 64 360 7.0 12.0 0.00 0.00 0.00 15 922.2
20260506185016 64 360 2.0 8.0 0.00 0.00 0.00 15 922.4
20260506184550 64 360 3.0 12.0 0.00 0.00 0.00 15 922.6
20260506184012 64 360 7.0 14.0 0.00 0.00 0.00 16 922.5
20260506183514 63 360 8.0 14.0 0.00 0.00 0.00 16 922.7
20260506183050 63 360 6.0 15.0 0.00 0.00 0.00 17 922.5
20260506182516 62 360 8.0 15.0 0.00 0.00 0.00 16 922.5
20260506182018 62 360 4.0 17.0 0.00 0.00 0.00 17 922.6
20260506181540 62 360 3.0 12.0 0.00 0.00 0.00 17 922.6
20260506181016 60 360 5.0 15.0 0.00 0.00 0.00 18 922.8
20260506180513 60 360 8.0 17.0 0.00 0.00 0.00 18 922.8
20260506180058 60 360 7.0 17.0 0.00 0.00 0.00 19 922.9
20260506175518 59 360 7.0 13.0 0.00 0.00 0.00 18 923.2
20260506175016 59 360 6.0 13.0 0.00 0.00 0.00 19 923.2
20260506174545 59 360 5.0 18.0 0.00 0.00 0.00 19 923.3
20260506174014 58 360 12.0 18.0 0.00 0.00 0.00 20 923.1
20260506173516 57 360 10.0 17.0 0.00 0.00 0.00 20 923.2
20260506173100 57 360 7.0 17.0 0.00 0.00 0.00 21 923.4
20260506172516 57 360 6.0 14.0 0.00 0.00 0.00 22 923.6
20260506172017 56 360 3.0 14.0 0.00 0.00 0.00 22 923.7
20260506171551 55 360 6.0 14.0 0.00 0.00 0.00 23 923.6
20260506171015 55 360 10.0 16.0 0.00 0.00 0.00 21 923.6
20260506170516 54 360 12.0 16.0 0.00 0.00 0.00 22 923.5
20260506170050 54 360 9.0 17.0 0.00 0.00 0.00 21 923.7
20260506165519 54 360 12.0 17.0 0.00 0.00 0.00 20 923.8
20260506165020 54 360 10.0 18.0 0.00 0.00 0.00 19 924.0
20260506164546 53 360 14.0 18.0 0.00 0.00 0.00 19 924.0
20260506164019 52 360 13.0 17.0 0.00 0.00 0.00 17 924.0
20260506163518 52 360 11.0 15.0 0.00 0.00 0.00 15 923.8
20260506163052 51 360 9.0 15.0 0.00 0.00 0.00 18 924.2
20260506162522 51 360 10.0 15.0 0.00 0.00 0.00 15 924.4
20260506162018 51 360 11.0 15.0 0.00 0.00 0.00 21 924.3
20260506161545 51 360 8.0 15.0 0.00 0.00 0.00 21 924.2
20260506161015 50 360 9.0 15.0 0.00 0.00 0.00 21 924.5
20260506160518 50 360 11.0 15.0 0.00 0.00 0.00 22 924.3
20260506160050 50 360 10.0 14.0 0.00 0.00 0.00 23 924.5
20260506155517 49 360 11.0 13.0 0.00 0.00 0.00 23 924.7
20260506155015 49 360 8.0 12.0 0.00 0.00 0.00 26 924.8
20260506154547 48 360 8.0 13.0 0.00 0.00 0.00 26 924.8
20260506154022 47 360 7.0 13.0 0.00 0.00 0.00 31 924.9
20260506153516 46 360 2.0 6.0 0.00 0.00 0.00 35 924.9
20260506153041 45 360 4.0 6.0 0.00 0.00 0.00 36 924.9
20260506152521 43 360 1.0 5.0 0.00 0.00 0.00 39 925.2
20260506152014 42 360 2.0 4.0 0.00 0.00 0.00 40 925.1
20260506151546 41 360 2.0 4.0 0.00 0.00 0.00 41 925.1
20260506151019 41 360 1.0 5.0 0.00 0.00 0.00 41 925.2
20260506150514 40 360 2.0 5.0 0.00 0.00 0.00 41 925.2
20260506150051 39 360 0.0 4.0 0.00 0.00 0.00 43 925.5
20260506145518 39 360 2.0 4.0 0.00 0.00 0.00 43 925.3
20260506145016 38 360 0.0 4.0 0.00 0.00 0.00 43 925.5
20260506144547 38 360 1.0 3.0 0.00 0.00 0.00 44 925.5
20260506144016 37 360 1.0 3.0 0.00 0.00 0.00 46 925.6
20260506143516 36 360 0.0 4.0 0.00 0.00 0.00 45 925.7
20260506143048 35 360 2.0 4.0 0.00 0.00 0.00 46 925.7
20260506142518 35 360 1.0 3.0 0.00 0.00 0.00 46 925.9
20260506142016 34 360 0.0 5.0 0.00 0.00 0.00 47 925.9
20260506141554 33 360 3.0 5.0 0.00 0.00 0.00 49 926.0
20260506141018 33 360 1.0 6.0 0.00 0.00 0.00 50 925.8
20260506140520 32 360 4.0 6.0 0.00 0.00 0.00 50 926.0
20260506140100 32 360 3.0 6.0 0.00 0.00 0.00 49 926.0
20260506135516 31 360 4.0 6.0 0.00 0.00 0.00 50 925.9
20260506135016 31 360 4.0 6.0 0.00 0.00 0.00 51 926.1
20260506134549 31 360 3.0 5.0 0.00 0.00 0.00 53 926.3
20260506134017 30 360 3.0 5.0 0.00 0.00 0.00 55 926.1
20260506133519 30 360 4.0 5.0 0.00 0.00 0.00 57 926.0
20260506133045 29 360 3.0 5.0 0.00 0.00 0.00 58 926.2
20260506132515 29 360 3.0 5.0 0.00 0.00 0.00 58 926.2
20260506132022 29 360 3.0 5.0 0.00 0.00 0.00 57 926.3
20260506131546 28 360 3.0 5.0 0.00 0.00 0.00 56 926.2
20260506131021 28 360 2.0 5.0 0.00 0.00 0.00 55 926.2
20260506130520 28 360 1.0 3.0 0.00 0.00 0.00 56 926.2
20260506130048 28 360 1.0 3.0 0.00 0.00 0.00 58 926.3
20260506125514 27 360 0.0 3.0 0.00 0.00 0.00 57 926.4
20260506125017 27 360 0.0 2.0 0.00 0.00 0.00 57 926.3
20260506124548 26 360 1.0 2.0 0.00 0.00 0.00 58 926.4
20260506124015 26 360 0.0 3.0 0.00 0.00 0.00 59 926.5
20260506123515 26 360 0.0 3.0 0.00 0.00 0.00 59 926.7
20260506123049 25 360 0.0 2.0 0.00 0.00 0.00 57 926.7
20260506122511 25 360 0.0 2.0 0.00 0.00 0.00 56 926.6
20260506122010 25 360 0.0 2.0 0.00 0.00 0.00 55 926.7
20260506121531 25 360 0.0 0.0 0.00 0.00 0.00 56 926.7
20260506121011 25 360 0.0 0.0 0.00 0.00 0.00 57 926.7
20260506120514 25 360 0.0 0.0 0.00 0.00 0.00 56 926.8
20260506120034 25 360 0.0 0.0 0.00 0.00 0.00 55 926.7
20260506115510 26 360 0.0 0.0 0.00 0.00 0.00 55 926.9
20260506115013 26 360 0.0 2.0 0.00 0.00 0.00 55 926.8
20260506114542 26 360 0.0 2.0 0.00 0.00 0.00 54 926.9
20260506114012 26 360 0.0 2.0 0.00 0.00 0.00 56 926.8
20260506113511 26 360 1.0 3.0 0.00 0.00 0.00 55 927.0
20260506113035 26 360 1.0 4.0 0.00 0.00 0.00 56 926.9
20260506112512 26 360 2.0 4.0 0.00 0.00 0.00 58 927.1
20260506112010 26 360 1.0 2.0 0.00 0.00 0.00 58 927.1
20260506111531 27 360 1.0 2.0 0.00 0.00 0.00 61 927.2
20260506111010 26 360 1.0 2.0 0.00 0.00 0.00 60 927.2
20260506110511 26 360 1.0 2.0 0.00 0.00 0.00 56 927.3
20260506110034 27 360 0.0 2.0 0.00 0.00 0.00 59 927.4
20260506105514 27 360 0.0 3.0 0.00 0.00 0.00 59 927.5
20260506105011 26 360 2.0 3.0 0.00 0.00 0.00 58 927.3
20260506104528 26 360 0.0 4.0 0.00 0.00 0.00 55 927.5
20260506104010 27 360 1.0 4.0 0.00 0.00 0.00 53 927.4
20260506103512 28 360 1.0 3.0 0.00 0.00 0.00 56 927.7
20260506103035 28 360 2.0 3.0 0.00 0.00 0.00 56 927.7
20260506102510 28 360 0.0 2.0 0.00 0.00 0.00 55 927.6
20260506102012 28 360 0.0 3.0 0.00 0.00 0.00 53 927.6
20260506101537 29 360 1.0 3.0 0.00 0.00 0.00 53 927.7
20260506101015 29 360 1.0 2.0 0.00 0.00 0.00 54 927.8
20260506100511 29 360 0.0 2.0 0.00 0.00 0.00 55 927.8
20260506100038 28 360 1.0 2.0 0.00 0.00 0.00 55 927.9
20260506095515 28 360 0.0 2.0 0.00 0.00 0.00 54 927.8
20260506095011 28 360 1.0 3.0 0.00 0.00 0.00 52 927.9
20260506094531 28 360 1.0 4.0 0.00 0.00 0.00 52 927.9
20260506094011 28 360 2.0 4.0 0.00 0.00 0.00 52 928.0
20260506093511 27 360 1.0 3.0 0.00 0.00 0.00 53 928.2
20260506093100 27 360 1.0 3.0 0.00 0.00 0.00 52 928.3
20260506092512 27 360 1.0 4.0 0.00 0.00 0.00 52 928.2
20260506092013 26 360 2.0 4.0 0.00 0.00 0.00 52 928.3
20260506091536 26 360 2.0 4.0 0.00 0.00 0.00 51 928.2
20260506091011 26 360 2.0 4.0 0.00 0.00 0.00 51 928.2
20260506090510 26 360 2.0 6.0 0.00 0.00 0.00 50 928.3
20260506090039 26 360 4.0 6.0 0.00 0.00 0.00 50 928.4
20260506085509 26 360 2.0 4.0 0.00 0.00 0.00 50 928.4
20260506085011 27 360 2.0 4.0 0.00 0.00 0.00 49 928.5
20260506084532 27 360 3.0 6.0 0.00 0.00 0.00 49 928.6
20260506084013 27 360 4.0 6.0 0.00 0.00 0.00 49 928.4
20260506083512 27 360 5.0 8.0 0.00 0.00 0.00 49 928.5
20260506083037 27 360 5.0 8.0 0.00 0.00 0.00 49 928.5
20260506082515 27 360 5.0 6.0 0.00 0.00 0.00 49 928.6
20260506082013 26 360 4.0 8.0 0.00 0.00 0.00 49 928.6
20260506081531 27 360 4.0 8.0 0.00 0.00 0.00 48 928.7
20260506081013 27 360 6.0 10.0 0.00 0.00 0.00 46 928.7
20260506080510 29 360 8.0 10.0 0.00 0.00 0.00 45 928.8
20260506073514 29 360 10.0 12.0 0.00 0.00 0.00 45 929.0
20260506073033 29 360 11.0 12.0 0.00 0.00 0.00 46 929.1
20260506072512 27 360 8.0 10.0 0.00 0.00 0.00 48 929.2
20260506072015 27 360 5.0 6.0 0.00 0.00 0.00 48 929.3
20260506071535 26 360 5.0 6.0 0.00 0.00 0.00 48 929.3
20260506071011 26 360 5.0 6.0 0.00 0.00 0.00 46 929.3
20260506070509 27 360 5.0 9.0 0.00 0.00 0.00 44 929.4